DELTA 1 DEB, 10747

Orbit data source: Space-Track

DELTA 1 DEB, 10747 is space debris in SSO originally from a launch on Thu, 29 Jul 1976 UTC launched from the Air Force Western Test Range (AFWTR). Debris objects in space refer to the collection of defunct objects orbiting the Earth. Examples of debris include non-operational satellites, rocket bodies, and fragments generated from explosions, collisions, or faulty payload assembly.

Loading next visibility...
Identifier
10747, 1976-077AU
Orbit
SSO
Country
Flag of USUS
Related business
Manufacturer
Unknown
Mission
Spacecraft
Bus & Motor
Unknown
Mass
Unknown
Launch date (UTC)
1976-07-29 (50 years ago)
Launch vehicle
Unknown
Launch site
Air Force Western Test Range (AFWTR)
Object type
Payload
Rocket body
Debris
Shape & HBR
Unknown shape, 0.1 m
Radar Cross Section
Medium (>0.1 m² and <1 m²)

Expand to show TLE details & history
Last TLE update: 1 day ago

TLE from 1 day ago
0 DELTA 1 DEB
1 10747U 76077AU  26254.95453846  .00002703  00000-0  32510-2 0  9994
2 10747 101.0910 259.8456 0130560 188.2887 201.4635 13.64341768420166
Epoch: 2026-09-11T22:54Z
TLE epoch observation values (Epoch: 2026-09-11T22:54:32.122Z)
Latitude
28.66164°
Longitude
-80.87842°
Altitude
1,113.424 km
Speed
7.254 km/s
True Right ascension
16h 54m 54s
True Declination
28° 31' 26"
Sunlit
Object was in daylight at epoch
Visualization orbit readout
Latitude
Unknown
Longitude
Unknown
Altitude
Unknown
Speed
Unknown
Apparent Right ascension
Unknown
Apparent Declination
Unknown
Sunlit
N/A
Visualization observer readout
Local Sidereal Time
16:32:58
Azimuth
Unknown
Elevation
Unknown
Doppler factor
Unknown
Orbital elements
Apogee altitude
1,113.868 km
Perigee altitude
920.758 km
Semi-major axis
7,395.45 km
Eccentricity
0.01306
Inclination
101.091°
RAAN
259.8456°
Arg. of periapsis
188.2887°
True anomaly
200.92426°
Mean anomaly
201.4635°
Eccentric anomaly
201.19307°
Mean motion
3.41269 °/min
Orbital period
105.49 mins
BSTAR
0.003251
Loading maneuver chart data...
Computing Atmospheric mass density...
Loading historical data...
Loading historical data...
Loading historical data...
Loading historical data...
Loading historical data...
Loading historical data...
Loading historical data...

Documentation

Showing up to 5 results
|